Regional Weather Roundup
Issued by NWS Goodland, KS

Home | Current Version | Previous Version | Text Only | Print | Product List | Glossary On
Versions: 1 2 3 4 5 6 7 8 9 10 11 12 13 14 15 16 17 18 19 20 21 22 23 24 25 26 27 28 29 30 31 32 33 34 35 36 37 38 39 40 41 42 43 44 45 46 47 48 49 50
000
ASUS43 KGLD 011608
RWRGLD

GOODLAND FORECAST AREA HOURLY WEATHER ROUNDUP
NATIONAL WEATHER SERVICE GOODLAND KS
900 AM MST SUN FEB 01 2015

...OFFICIAL OBSERVATIONS...

CITY           SKY/WX    TMP DP  RH WIND       PRES   REMARKS
GOODLAND KS    PTSUNNY   17  13  84 N22G30    30.18R WCI   0
HILL CITY KS   CLOUDY    15   8  73 NW28G36   30.18R WCI  -5
IMPERIAL NEB   PTSUNNY   13   4  67 N32G41    30.23R BLWGSNOWWCI  -9
MCCOOK NEB     SUNNY     13   4  67 NW25G41   30.21R HAZE    WCI  -7
AKRON CO       CLOUDY    19  14  81 N24G31    30.16R WCI   2
BURLINGTON CO  SUNNY     21  15  78 N26G35    30.14R WCI   4
LIMON CO       LGT SNOW  19  14  81 N10       30.13R WCI   7
$$

...UNOFFICIAL OBSERVATIONS...

CITY           SKY/WX    TMP DP  RH WIND       PRES   REMARKS
COLBY KS       MOSUNNY   18  12  79 NW28G33   30.18R WCI  -1
GOVE KS          N/A     17  32 100 MISG        N/A
NORTON KS      LGT SNOW  12   5  73 NW25G35   30.17R WCI  -8
SHARON SPRINGS   N/A     22  17  82 N23G33      N/A  WCI   6
KIT CARSON CO    N/A     24  18  77 MISG        N/A
YUMA CO          N/A     16  11  80 N14         N/A  WCI   2
$$



USA.gov is the U.S. government's official web portal to all federal, state and local government web resources and services.